Horntown, VA

4:00 PM EDT on September 26, 2016 (GMT -0400)
Wallops Flight Facility

Weather History for KWAL - June, 2013

Change the Weather History Date:

Saturday, June 8, 2013

  Actual Average Record
Temperature  
Mean Temperature 72 °F 70 °F  
Max Temperature 80 °F 78 °F 96 °F (1999)
Min Temperature 64 °F 62 °F 46 °F (1997)
Degree Days  
Heating Degree Days 0    
Month to date heating degree days 0  
Since 1 June heating degree days 0  
Since 1 July heating degree days 3761  
Cooling Degree Days 7    
Month to date cooling degree days 57  
Year to date cooling degree days 188  
Since 1 June cooling degree days 57  
Growing Degree Days 24 (Base 50)    
Moisture  
Dew Point 63 °F    
Average Humidity 68    
Maximum Humidity 78    
Minimum Humidity 58    
Precipitation  
Precipitation 0.56 in 0.12 in 0.80 in (2007)
Month to date precipitation 2.09 0.91  
Year to date precipitation 20.16 16.73  
Sea Level Pressure  
Sea Level Pressure 29.91 in    
Wind  
Wind Speed 6 mph (WNW)    
Max Wind Speed 20 mph    
Max Gust Speed 28 mph    
Visibility 8 miles    
Events Rain    
T = Trace of Precipitation, MM = Missing Value Source: NWS Daily Summary

Daily Weather History Graph

Daily Weather History Graph

Search for Another Location

Airport or City:

Trip Planner

Search our weather history database for the weather conditions in past years. The results will help you decide how hot, cold, wet, or windy it might be!

Date:

Astronomy

Jun. 08, 2013 Rise Set
Actual Time 5:39 AM EDT 8:22 PM EDT
Civil Twilight 5:08 AM EDT 8:54 PM EDT
Nautical Twilight 4:29 AM EDT 9:33 PM EDT
Astronomical Twilight 3:45 AM EDT 10:17 PM EDT
Moon 5:44 AM EDT (6/8) 8:24 PM EDT (6/8)
Length of Visible Light 15h 46m
Length of Day
14h 43m
New Moon, 0% of the Moon is Illuminated
Jun 8
New Moon
Jun 16
First Quarter
Jun 23
Full
Jun 30
Last Quarter
Jul 8
New

Hourly Weather History & Observations

Time (EDT) Temp. Heat Index Dew Point Humidity Pressure Visibility Wind Dir Wind Speed Gust Speed Precip Events Conditions
12:54 AM 71.1 °F - 64.0 °F 78% 29.66 in 8.0 mi WNW 16.1 mph 24.2 mph 0.01 in   Overcast
1:14 AM 71.1 °F - 64.0 °F 78% 29.69 in 10.0 mi WNW 16.1 mph 27.6 mph N/A   Overcast
1:42 AM 71.1 °F - 64.0 °F 78% 29.71 in 10.0 mi WNW 13.8 mph 23.0 mph N/A   Overcast
1:54 AM 71.1 °F - 63.0 °F 75% 29.71 in 10.0 mi WNW 17.3 mph 25.3 mph N/A   Overcast
2:20 AM 71.1 °F - 63.0 °F 75% 29.75 in 10.0 mi WNW 11.5 mph 19.6 mph N/A   Overcast
2:51 AM 71.6 °F - 62.6 °F 73% 29.77 in 10.0 mi WNW 12.7 mph - N/A   Overcast
2:54 AM 71.1 °F - 63.0 °F 75% 29.77 in 10.0 mi WNW 12.7 mph 23.0 mph N/A   Overcast
3:10 AM 71.1 °F - 63.0 °F 75% 29.78 in 10.0 mi West 6.9 mph 18.4 mph N/A   Overcast
3:54 AM 71.1 °F - 63.0 °F 75% 29.80 in 10.0 mi WNW 11.5 mph 18.4 mph N/A   Overcast
4:30 AM 71.1 °F - 63.0 °F 75% 29.83 in 10.0 mi West 9.2 mph - N/A   Overcast
4:54 AM 71.1 °F - 63.0 °F 75% 29.84 in 10.0 mi West 8.1 mph - N/A   Overcast
5:05 AM 71.1 °F - 63.0 °F 75% 29.85 in 10.0 mi WNW 5.8 mph - N/A   Overcast
5:38 AM 71.1 °F - 63.0 °F 75% 29.86 in 10.0 mi NW 10.4 mph - N/A   Mostly Cloudy
5:54 AM 71.1 °F - 63.0 °F 75% 29.86 in 10.0 mi WNW 6.9 mph - N/A   Partly Cloudy
6:54 AM 71.1 °F - 63.0 °F 75% 29.88 in 10.0 mi West 6.9 mph - N/A   Partly Cloudy
7:54 AM 72.0 °F - 63.0 °F 73% 29.91 in 10.0 mi West 4.6 mph - N/A   Overcast
8:54 AM 75.0 °F - 62.1 °F 64% 29.93 in 10.0 mi WNW 4.6 mph - N/A   Overcast
9:54 AM 75.9 °F - 64.0 °F 67% 29.94 in 10.0 mi SSW 4.6 mph - N/A   Mostly Cloudy
10:35 AM 72.0 °F - 64.0 °F 76% 29.95 in 4.0 mi SSW 8.1 mph - 0.01 in Rain Light Rain
10:39 AM 72.0 °F - 64.0 °F 76% 29.95 in 2.0 mi SSW 6.9 mph - 0.03 in Rain Rain
10:46 AM 71.1 °F - 64.0 °F 78% 29.95 in 1.5 mi SSW 5.8 mph - 0.11 in Rain Rain
10:49 AM 71.6 °F - 64.4 °F 78% 29.95 in 2.5 mi SW 5.8 mph - 0.11 in Rain Light Rain
10:54 AM 72.0 °F - 64.9 °F 78% 29.94 in 7.0 mi SSW 5.8 mph - 0.12 in Rain Light Rain
11:54 AM 73.0 °F - 64.0 °F 73% 29.95 in 10.0 mi WSW 4.6 mph - 0.00 in   Overcast
12:54 PM 73.0 °F - 63.0 °F 71% 29.95 in 10.0 mi North 5.8 mph - N/A   Overcast
1:03 PM 71.1 °F - 63.0 °F 75% 29.98 in 1.8 mi NNW 13.8 mph 18.4 mph 0.04 in Rain Heavy Rain
1:07 PM 70.0 °F - 62.1 °F 76% 29.98 in 0.8 mi NNW 12.7 mph 18.4 mph 0.14 in Rain Heavy Rain
1:16 PM 70.0 °F - 63.0 °F 78% 29.98 in 1.0 mi NNW 10.4 mph - 0.43 in Rain Heavy Rain
1:20 PM 70.0 °F - 63.0 °F 78% 29.98 in 2.0 mi NNW 8.1 mph - 0.43 in Rain Light Rain
1:22 PM 70.0 °F - 63.0 °F 78% 29.98 in 3.0 mi NNW 8.1 mph - 0.43 in Rain Light Rain
1:31 PM 70.0 °F - 63.0 °F 78% 29.96 in 10.0 mi North 8.1 mph - 0.43 in Rain Light Rain
1:54 PM 71.1 °F - 64.9 °F 81% 29.94 in 10.0 mi East 4.6 mph - 0.44 in Rain Light Rain
2:54 PM 73.0 °F - 63.0 °F 71% 29.96 in 10.0 mi NNE 3.5 mph - 0.00 in   Overcast
3:18 PM 73.9 °F - 64.0 °F 71% 29.97 in 10.0 mi East 4.6 mph - N/A   Overcast
3:47 PM 73.9 °F - 64.0 °F 71% 29.97 in 10.0 mi East 5.8 mph - N/A   Overcast
3:54 PM 75.0 °F - 64.9 °F 71% 29.96 in 10.0 mi East 4.6 mph - N/A   Overcast
4:54 PM 77.0 °F - 64.9 °F 66% 29.97 in 10.0 mi Calm Calm - N/A   Overcast
5:54 PM 80.1 °F 81.7 °F 64.0 °F 58% 29.98 in 10.0 mi WNW 6.9 mph - N/A   Mostly Cloudy
6:03 PM 79.0 °F - 64.0 °F 60% 29.99 in 10.0 mi NW 5.8 mph - N/A   Scattered Clouds
6:54 PM 77.0 °F - 64.0 °F 64% 30.00 in 10.0 mi NNW 5.8 mph - N/A   Partly Cloudy
7:54 PM 75.0 °F - 63.0 °F 66% 30.04 in 10.0 mi WNW 5.8 mph - N/A   Clear
8:54 PM 72.0 °F - 61.0 °F 68% 30.05 in 10.0 mi NW 4.6 mph - N/A   Clear
9:54 PM 69.1 °F - 61.0 °F 75% 30.07 in 10.0 mi NW 3.5 mph - N/A   Clear
10:54 PM 68.0 °F - 61.0 °F 78% 30.09 in 10.0 mi WNW 3.5 mph - N/A   Clear
11:54 PM 66.9 °F - 59.0 °F 76% 30.09 in 10.0 mi Calm Calm - N/A   Clear